Zurück zum Katalog

CZ-4C DEB

AktivPO
NORAD 43601·DEBRIS·🇨🇳 China

Gestartet Aug 9, 2016 von Taiyuan Satellite Launch Center

Loading…

Nächste Überflüge (nächste 24 Stunden)

TLE

AktuellSource: Space-Track

Epoche: Sep 13, 2026, 08:48 UTC

1 43601U 16049F   26256.36704336  .00011730  00000-0  82060-3 0  9998
2 43601  98.3444  46.2069 0061572 256.1439 103.2930 15.03911264645898

Verfolge CZ-4C DEB in Echtzeit mit AllMySat

Download on the App Store